This demonstration page uses our WeatherBlox Daily Observations layout. Learn more.

Left ArrowRight Arrow

30.21309, -93.2044

Hourly Observations for April 8, 2022

Temp ( °F °C ) Dew Point ( °F °C ) Humidity (%) Winds ( mph kmh ) Pressure ( in mb ) Visibility ( mi km ) Precip ( " mm )
12:15 am 00:15 Clear 57 13.8 28 -2 34 34 NW 5 7 30.12 1020 10 16 0.00 0.00
12:35 am 00:35 Clear 58 14.5 28 -2.1 32 32 WNW 5 7 30.12 1020 10 16 0.00 0.00
12:55 am 00:55 Clear 58 14.4 29 -1.9 33 33 WNW 5 7 30.12 1020 10 16 0.00 0.00
1:15 am 01:15 Clear 55 12.7 30 -1 39 39 Calm 30.12 1020 10 16 0.00 0.00
1:35 am 01:35 Clear 45 7.2 36 2 70 70 SW 3 6 30.11 1020 10 16 0.00 0.00
1:55 am 01:55 Clear 49 9.7 34 1.3 56 56 WSW 5 7 30.11 1020 10 16 0.00 0.00
2:15 am 02:15 Partly Cloudy 55 12.5 33 0.3 43 43 WSW 6 9 30.11 1020 10 16 0.00 0.00
2:35 am 02:35 Partly Cloudy 56 13.5 33 0.4 41 41 W 7 11 30.10 1019 10 16 0.00 0.00
2:55 am 02:55 Clear 56 13.4 33 0.3 41 41 W 8 13 30.10 1019 10 16 0.00 0.00
3:15 am 03:15 Clear 56 13.5 32 0 40 40 W 8 13 30.10 1019 10 16 0.00 0.00
3:35 am 03:35 Clear 56 13.2 32 -0.1 40 40 W 8 13 30.10 1019 10 16 0.00 0.00
3:55 am 03:55 Clear 56 13.6 31 -0.6 38 38 W 9 15 30.10 1019 10 16 0.00 0.00
4:15 am 04:15 Clear 56 13.3 31 -0.4 39 39 W 8 13 30.10 1019 10 16 0.00 0.00
4:35 am 04:35 Clear 56 13.5 32 -0.2 39 39 W 8 13 30.10 1019 10 16 0.00 0.00
4:55 am 04:55 Clear 55 13 32 0.2 42 42 W 7 11 30.10 1019 10 16 0.00 0.00
5:15 am 05:15 Clear 57 13.8 31 -0.3 38 38 W 10 17 30.10 1019 10 16 0.00 0.00
5:35 am 05:35 Clear 57 13.7 31 -0.3 38 38 W 10 17 30.10 1019 10 16 0.00 0.00
6:00 am 06:00 Mostly Clear 55 13 32 0 41 41 WNW 13 20 30.11 1020 10 16 0.00 0.00
6:45 am 06:45 Mostly Clear 55 13 30 -1 38 38 WNW 13 20 30.13 1020 10 16 0.00 0.00
7:47 am 07:47 Mostly Sunny 54 12 32 0 44 44 WNW 10 17 30.15 1021 10 16 0.00 0.00
8:50 am 08:50 Mostly Sunny 57 14 32 0 39 39 NNW 15 24 30.17 1022 10 16 0.00 0.00
9:47 am 09:47 Mostly Sunny 61 16 30 -1 31 31 NW 13 20 30.18 1022 10 16 0.00 0.00
10:55 am 10:55 Mostly Sunny 66 19 27 -3 22 22 NNW 15 24 30.18 1022 10 16 0.00 0.00
11:50 am 11:50 Mostly Sunny 68 20 28 -2 23 23 NNW 18 30 30.16 1021 10 16 0.00 0.00
12:50 pm 12:50 Mostly Sunny 70 21 27 -3 20 20 WNW 22 35 30.13 1020 10 16 0.00 0.00
1:50 pm 13:50 Mostly Sunny 70 21 25 -4 18 18 NW 25 41 30.11 1020 10 16 0.00 0.00
2:55 pm 14:55 Mostly Sunny 72 22 23 -5 16 16 NW 26 43 30.08 1019 10 16 0.00 0.00
3:45 pm 15:45 Mostly Sunny 72 22 28 -2 20 20 NW 22 35 30.05 1018 10 16 0.00 0.00
4:45 pm 16:45 Mostly Sunny 73 23 27 -3 17 17 WNW 20 31 30.04 1017 10 16 0.00 0.00
5:50 pm 17:50 Mostly Sunny 72 22 25 -4 17 17 NW 22 35 30.03 1017 10 16 0.00 0.00
6:45 pm 18:45 Mostly Sunny 70 21 23 -5 17 17 NW 22 35 30.04 1017 10 16 0.00 0.00
7:45 pm 19:45 Mostly Clear 66 19 23 -5 19 19 NW 21 33 30.06 1018 10 16 0.00 0.00
8:50 pm 20:50 Mostly Clear 61 16 28 -2 29 29 NW 7 11 30.10 1019 10 16 0.00 0.00
9:45 pm 21:45 Mostly Clear 59 15 30 -1 34 34 WNW 6 9 30.13 1020 10 16 0.00 0.00
10:15 pm 22:15 Clear 58 14.4 32 -0.1 37 37 NW 6 9 30.13 1020 10 16 0.00 0.00
10:35 pm 22:35 Clear 57 13.9 33 0.3 40 40 WNW 7 11 30.14 1021 10 16 0.00 0.00
10:55 pm 22:55 Clear 56 13.5 33 0.5 41 41 NW 7 11 30.14 1021 10 16 0.00 0.00
11:15 pm 23:15 Clear 56 13.4 33 0.7 42 42 NW 7 11 30.15 1021 10 16 0.00 0.00
11:35 pm 23:35 Clear 56 13.6 32 0.2 40 40 WNW 6 9 30.15 1021 10 16 0.00 0.00
11:55 pm 23:55 Clear 56 13.1 32 0.2 41 41 WNW 6 9 30.15 1021 10 16 0.00 0.00

Powered by AerisWeather